sat.trackr.live / text

‹ back to catalog

QIANFAN-3

NORAD 60381 · 2024-140C

PAYLOAD ACTIVE UNKNOWN

§ Identity

Operator
Country
PRC
Launch date
2024-08-06
Launch site
TAISC
Launch vehicle
Mass (kg)
RCS (m²)

External: N2YO · Heavens-Above · Gunter

§ Orbital elements

Epoch: 2026-05-25T02:43:37.021152Z

Period
106.59 min
Inclination
88.9693°
Eccentricity
0.0015929
Mean motion
13.51006783 rev/d
Perigee alt
1,056.7 km
Apogee alt
1,080.4 km
Semi-major
7,446.7 km
B*
1.1109e-4
RAAN
282.2615°
Arg perigee
90.2262°
Mean anomaly
270.0715°
Rev number
8,937

§ Raw data

QIANFAN-31 60381U 24140C   26145.11362293  .00000084  00000+0  11109-3 0  99902 60381  88.9693 282.2615 0015929  90.2262 270.0715 13.51006783 89379

JSON: /api/v1/satellites/60381 · /tle

For live sub-satellite position, see the globe view (requires WebGL).

§ Visibility from observer

Set your observer location to see the next 7 days of passes ≥ 10°. The values pass through the URL so the page stays shareable.

No JS? Fill the form by hand. The geolocation button needs JavaScript.